Location: El Águila
(10.4167°N, 66.7167°W)
Time: 05:47:26
(UTC+00:00)

Cosmos 2219 - Pass Details

Date: 02 October 2022
Orbit: 832 x 861 km, 71.1° (Epoch: 04 December)

Event Time Altitude Azimuth Distance (km) Brightness Sun altitude
Rises 23:06:07 0° 345° (NNW) 3,426 6.5 -13.0°
Reaches altitude 10° 23:08:34 10° 346° (NNW) 2,489 5.8 -13.6°
Maximum altitude 23:14:19 83° 75° (ENE) 867 3.2 -15.0°
Drops below altitude 10° 23:20:01 10° 162° (SSE) 2,481 5.5 -16.4°
Sets 23:22:28 0° 163° (SSE) 3,414 6.2 -17.0°
